QPF
0.00 0.00 0.00 0.00 0.00 0.00 0.00 0.00 0.00 0.00 0.00 0.00 0.00 0.00 0.00 0.00 0.00 0.00 0.00 0.00 0.00 0.00 0.00 0.00 0.00 0.00 0.00 0.00 0.01 0.02 0.03 0.03 0.03 0.03 0.03 0.03 0.04 0.04 0.05 0.05 0.05 0.06 0.05 0.04
0.00 0.00 0.00 0.00 0.00 0.00 0.00 0.00 0.00 0.00 0.00 0.00 0.00 0.00 0.00 0.00 0.00 0.00 0.00 0.00 0.00 0.00 0.00 0.00 0.00 0.00 0.00 0.00 0.00 0.01 0.02 0.02 0.02 0.03 0.03 0.03 0.02 0.02 0.03 0.03 0.04 0.04 0.06 0.05
0.00 0.00 0.00 0.00 0.00 0.00 0.00 0.00 0.00 0.00 0.00 0.00 0.00 0.00 0.00 0.00 0.00 0.00 0.00 0.00 0.00 0.00 0.00 0.00 0.00 0.00 0.00 0.00 0.00 0.00 0.01 0.02 0.02 0.02 0.02 0.01 0.02 0.02 0.03 0.04 0.05 0.04 0.04 0.03
0.00 0.00 0.00 0.00 0.00 0.00 0.00 0.00 0.00 0.00 0.00 0.00 0.00 0.00 0.00 0.00 0.00 0.00 0.00 0.00 0.00 0.00 0.00 0.00 0.00 0.00 0.00 0.00 0.00 0.00 0.01 0.01 0.01 0.01 0.02 0.02 0.01 0.02 0.03 0.03 0.03 0.03 0.03 0.03
0.00 0.00 0.00 0.00 0.00 0.00 0.00 0.00 0.00 0.00 0.00 0.00 0.00 0.00 0.00 0.00 0.00 0.00 0.00 0.00 0.00 0.00 0.00 0.00 0.00 0.00 0.00 0.00 0.00 0.00 0.00 0.01 0.01 0.01 0.02 0.02 0.02 0.02 0.02 0.03 0.04 0.04 0.03 0.04
0.00 0.00 0.00 0.00 0.00 0.00 0.00 0.00 0.00 0.00 0.00 0.00 0.00 0.00 0.00 0.00 0.00 0.00 0.00 0.00 0.00 0.00 0.00 0.00 0.00 0.00 0.00 0.00 0.00 0.00 0.00 0.01 0.01 0.01 0.02 0.02 0.02 0.02 0.03 0.04 0.05 0.05 0.05 0.05
0.00 0.00 0.00 0.00 0.00 0.00 0.00 0.00 0.00 0.00 0.01 0.00 0.00 0.00 0.00 0.00 0.00 0.00 0.00 0.00 0.00 0.00 0.00 0.00 0.00 0.00 0.00 0.00 0.00 0.00 0.01 0.01 0.01 0.01 0.01 0.01 0.02 0.03 0.05 0.05 0.05 0.04 0.04 0.05
0.00 0.00 0.00 0.00 0.00 0.00 0.00 0.00 0.00 0.01 0.01 0.00 0.00 0.00 0.00 0.00 0.00 0.00 0.00 0.00 0.00 0.00 0.00 0.00 0.00 0.00 0.00 0.00 0.00 0.00 0.01 0.01 0.01 0.02 0.03 0.03 0.03 0.06 0.11 0.11 0.09 0.05 0.04 0.04
0.00 0.00 0.00 0.00 0.00 0.00 0.00 0.00 0.00 0.00 0.00 0.00 0.00 0.00 0.00 0.00 0.00 0.00 0.00 0.00 0.00 0.00 0.00 0.00 0.00 0.00 0.00 0.00 0.00 0.00 0.01 0.01 0.02 0.03 0.03 0.04 0.04 0.04 0.06 0.10 0.11 0.06 0.05 0.04
0.00 0.00 0.00 0.00 0.00 0.00 0.00 0.00 0.00 0.00 0.00 0.00 0.00 0.00 0.00 0.00 0.00 0.00 0.00 0.00 0.00 0.00 0.00 0.00 0.00 0.00 0.00 0.00 0.00 0.00 0.00 0.01 0.01 0.02 0.02 0.02 0.03 0.03 0.04 0.04 0.05 0.05 0.05 0.04
0.00 0.00 0.00 0.00 0.00 0.00 0.00 0.00 0.00 0.00 0.00 0.00 0.00 0.00 0.00 0.00 0.00 0.00 0.00 0.00 0.00 0.00 0.00 0.00 0.00 0.00 0.00 0.00 0.00 0.00 0.00 0.00 0.01 0.01 0.02 0.02 0.02 0.01 0.02 0.03 0.03 0.03 0.03 0.03
0.00 0.00 0.00 0.00 0.00 0.00 0.00 0.00 0.00 0.00 0.00 0.00 0.00 0.00 0.00 0.00 0.00 0.00 0.00 0.00 0.00 0.00 0.00 0.00 0.00 0.00 0.00 0.00 0.00 0.00 0.00 0.00 0.01 0.01 0.02 0.02 0.01 0.01 0.01 0.02 0.02 0.03 0.03 0.02
0.00 0.00 0.00 0.00 0.00 0.00 0.00 0.00 0.00 0.00 0.00 0.00 0.00 0.00 0.00 0.00 0.00 0.00 0.00 0.00 0.00 0.00 0.00 0.00 0.00 0.01 0.00 0.00 0.00 0.01 0.01 0.01 0.01 0.02 0.03 0.03 0.02 0.02 0.01 0.01 0.01 0.02 0.02 0.02
0.00 0.00 0.00 0.00 0.00 0.00 0.00 0.00 0.00 0.00 0.00 0.00 0.00 0.00 0.00 0.00 0.00 0.00 0.01 0.01 0.01 0.00 0.00 0.00 0.00 0.00 0.00 0.00 0.00 0.01 0.01 0.01 0.00 0.01 0.01 0.02 0.03 0.03 0.03 0.03 0.03 0.02 0.02 0.02
0.00 0.00 0.00 0.00 0.00 0.00 0.00 0.00 0.00 0.00 0.00 0.00 0.00 0.00 0.00 0.00 0.00 0.00 0.01 0.01 0.01 0.01 0.01 0.01 0.01 0.01 0.01 0.01 0.01 0.01 0.00 0.00 0.00 0.01 0.02 0.04 0.05 0.06 0.06 0.06 0.05 0.04 0.02 0.01
0.00 0.00 0.00 0.00 0.00 0.00 0.00 0.00 0.00 0.00 0.00 0.00 0.00 0.00 0.00 0.00 0.00 0.01 0.01 0.01 0.01 0.01 0.01 0.01 0.00 0.00 0.01 0.01 0.00 0.00 0.00 0.01 0.01 0.01 0.02 0.03 0.04 0.05 0.05 0.06 0.06 0.04 0.02 0.02
0.00 0.00 0.00 0.00 0.00 0.00 0.00 0.00 0.00 0.00 0.00 0.00 0.00 0.00 0.00 0.00 0.01 0.01 0.01 0.01 0.01 0.01 0.01 0.00 0.01 0.00 0.00 0.00 0.00 0.00 0.01 0.01 0.02 0.02 0.03 0.03 0.02 0.03 0.03 0.04 0.04 0.05 0.04 0.03
0.00 0.00 0.00 0.00 0.00 0.00 0.00 0.00 0.00 0.00 0.00 0.00 0.00 0.00 0.00 0.01 0.01 0.01 0.01 0.01 0.00 0.00 0.00 0.00 0.00 0.00 0.00 0.00 0.00 0.00 0.01 0.02 0.03 0.03 0.04 0.03 0.02 0.03 0.03 0.04 0.05 0.05 0.04 0.04
0.00 0.00 0.00 0.00 0.00 0.00 0.00 0.00 0.00 0.00 0.00 0.00 0.00 0.00 0.00 0.00 0.00 0.00 0.00 0.00 0.00 0.00 0.00 0.00 0.00 0.00 0.01 0.00 0.00 0.01 0.01 0.01 0.01 0.02 0.03 0.02 0.02 0.03 0.04 0.05 0.07 0.07 0.06 0.06
0.00 0.00 0.00 0.00 0.00 0.00 0.00 0.00 0.00 0.00 0.01 0.00 0.00 0.00 0.00 0.00 0.00 0.00 0.00 0.00 0.00 0.00 0.00 0.00 0.00 0.00 0.00 0.00 0.00 0.01 0.02 0.02 0.01 0.01 0.02 0.02 0.02 0.03 0.08 0.08 0.07 0.06 0.06 0.05
0.00 0.00 0.00 0.00 0.00 0.00 0.00 0.00 0.00 0.01 0.01 0.00 0.00 0.00 0.00 0.00 0.00 0.00 0.00 0.00 0.00 0.00 0.00 0.00 0.00 0.01 0.01 0.01 0.02 0.02 0.01 0.01 0.01 0.01 0.01 0.01 0.01 0.03 0.06 0.05 0.04 0.05 0.05 0.04
0.01 0.00 0.00 0.00 0.00 0.01 0.00 0.01 0.01 0.01 0.00 0.00 0.00 0.00 0.00 0.00 0.00 0.00 0.00 0.00 0.01 0.01 0.01 0.01 0.01 0.01 0.01 0.01 0.01 0.01 0.01 0.01 0.01 0.01 0.01 0.01 0.01 0.02 0.03 0.03 0.04 0.05 0.05 0.05
0.01 0.01 0.01 0.01 0.01 0.01 0.00 0.01 0.00 0.00 0.00 0.00 0.00 0.00 0.00 0.01 0.00 0.01 0.01 0.01 0.01 0.01 0.01 0.01 0.01 0.01 0.01 0.01 0.01 0.01 0.01 0.01 0.02 0.02 0.01 0.01 0.01 0.01 0.01 0.02 0.05 0.05 0.04 0.04
0.01 0.01 0.01 0.01 0.01 0.00 0.01 0.01 0.00 0.00 0.00 0.01 0.00 0.00 0.00 0.00 0.00 0.01 0.02 0.03 0.03 0.03 0.03 0.02 0.01 0.01 0.02 0.02 0.03 0.03 0.02 0.02 0.02 0.01 0.01 0.01 0.01 0.01 0.01 0.01 0.03 0.04 0.03 0.03
0.00 0.01 0.01 0.02 0.02 0.01 0.01 0.01 0.01 0.00 0.00 0.01 0.01 0.02 0.02 0.01 0.01 0.01 0.01 0.02 0.02 0.03 0.03 0.02 0.01 0.01 0.01 0.01 0.02 0.01 0.01 0.01 0.02 0.02 0.02 0.01 0.01 0.01 0.01 0.02 0.02 0.03 0.02 0.03
0.00 0.01 0.02 0.02 0.02 0.01 0.02 0.01 0.01 0.01 0.02 0.02 0.03 0.04 0.03 0.02 0.01 0.01 0.01 0.03 0.03 0.03 0.02 0.01 0.01 0.01 0.01 0.01 0.01 0.01 0.01 0.01 0.01 0.01 0.02 0.01 0.01 0.00 0.01 0.01 0.02 0.03 0.03 0.03
MSLP
1009.25 1009.81 1010.31 1010.73 1011.09 1011.39 1011.68 1011.98 1012.30 1012.62 1012.95 1013.26 1013.52 1013.72 1013.86 1013.94 1014.01 1014.07 1014.16 1014.28 1014.44 1014.63 1014.84 1015.03 1015.20 1015.34 1015.44 1015.51 1015.56 1015.60 1015.65 1015.71 1015.77 1015.82 1015.87 1015.88 1015.87 1015.83 1015.76 1015.67 1015.57 1015.47 1015.37 1015.29
1010.04 1010.48 1010.83 1011.10 1011.31 1011.51 1011.74 1012.01 1012.34 1012.71 1013.07 1013.40 1013.65 1013.81 1013.87 1013.86 1013.82 1013.78 1013.79 1013.88 1014.04 1014.28 1014.55 1014.84 1015.11 1015.32 1015.48 1015.59 1015.65 1015.70 1015.73 1015.78 1015.83 1015.88 1015.92 1015.94 1015.92 1015.86 1015.75 1015.60 1015.44 1015.27 1015.12 1014.99
1010.65 1010.98 1011.19 1011.33 1011.42 1011.54 1011.73 1012.01 1012.38 1012.80 1013.21 1013.57 1013.82 1013.94 1013.92 1013.80 1013.64 1013.49 1013.41 1013.44 1013.60 1013.86 1014.20 1014.57 1014.93 1015.23 1015.45 1015.60 1015.69 1015.73 1015.76 1015.79 1015.82 1015.87 1015.90 1015.91 1015.88 1015.79 1015.65 1015.46 1015.24 1015.02 1014.81 1014.64
1011.03 1011.25 1011.35 1011.38 1011.40 1011.48 1011.67 1011.98 1012.41 1012.90 1013.38 1013.78 1014.03 1014.11 1014.02 1013.79 1013.50 1013.23 1013.04 1013.00 1013.11 1013.38 1013.76 1014.18 1014.61 1014.97 1015.25 1015.44 1015.55 1015.60 1015.62 1015.64 1015.67 1015.70 1015.74 1015.74 1015.70 1015.60 1015.44 1015.22 1014.97 1014.70 1014.46 1014.27
1011.15 1011.28 1011.30 1011.27 1011.25 1011.33 1011.55 1011.93 1012.44 1013.01 1013.57 1014.01 1014.28 1014.32 1014.16 1013.83 1013.42 1013.02 1012.72 1012.58 1012.62 1012.85 1013.22 1013.67 1014.13 1014.53 1014.85 1015.07 1015.19 1015.25 1015.27 1015.29 1015.31 1015.35 1015.39 1015.40 1015.37 1015.28 1015.11 1014.89 1014.62 1014.35 1014.09 1013.87
1011.10 1011.15 1011.11 1011.04 1011.02 1011.11 1011.39 1011.84 1012.44 1013.10 1013.73 1014.23 1014.51 1014.55 1014.33 1013.92 1013.41 1012.89 1012.47 1012.23 1012.18 1012.34 1012.67 1013.10 1013.54 1013.95 1014.28 1014.51 1014.64 1014.70 1014.73 1014.75 1014.78 1014.83 1014.88 1014.91 1014.90 1014.83 1014.69 1014.48 1014.22 1013.95 1013.68 1013.46
1010.94 1010.94 1010.85 1010.76 1010.75 1010.88 1011.21 1011.73 1012.41 1013.15 1013.85 1014.40 1014.72 1014.76 1014.53 1014.07 1013.49 1012.89 1012.37 1012.03 1011.89 1011.96 1012.22 1012.58 1012.98 1013.36 1013.67 1013.88 1014.01 1014.06 1014.09 1014.11 1014.15 1014.21 1014.27 1014.33 1014.35 1014.30 1014.19 1014.01 1013.78 1013.52 1013.26 1013.04
1010.81 1010.75 1010.64 1010.54 1010.54 1010.70 1011.06 1011.63 1012.36 1013.15 1013.90 1014.50 1014.87 1014.94 1014.73 1014.28 1013.68 1013.05 1012.49 1012.07 1011.85 1011.84 1012.00 1012.28 1012.61 1012.92 1013.18 1013.35 1013.45 1013.49 1013.50 1013.51 1013.54 1013.60 1013.67 1013.74 1013.78 1013.76 1013.67 1013.51 1013.31 1013.07 1012.83 1012.61
1010.77 1010.68 1010.54 1010.44 1010.45 1010.62 1010.99 1011.58 1012.32 1013.14 1013.91 1014.55 1014.97 1015.10 1014.96 1014.57 1014.03 1013.43 1012.87 1012.44 1012.17 1012.09 1012.16 1012.34 1012.58 1012.80 1012.98 1013.09 1013.14 1013.13 1013.11 1013.09 1013.10 1013.14 1013.19 1013.25 1013.27 1013.25 1013.17 1013.03 1012.84 1012.62 1012.39 1012.18
1010.87 1010.76 1010.63 1010.53 1010.53 1010.70 1011.06 1011.62 1012.33 1013.13 1013.91 1014.58 1015.04 1015.26 1015.23 1014.96 1014.54 1014.04 1013.55 1013.16 1012.89 1012.76 1012.76 1012.85 1012.98 1013.10 1013.18 1013.21 1013.18 1013.11 1013.03 1012.96 1012.91 1012.90 1012.90 1012.91 1012.90 1012.85 1012.75 1012.60 1012.40 1012.19 1011.96 1011.75
1011.10 1011.01 1010.90 1010.82 1010.82 1010.96 1011.28 1011.78 1012.44 1013.18 1013.93 1014.60 1015.13 1015.45 1015.55 1015.45 1015.20 1014.86 1014.51 1014.20 1013.97 1013.83 1013.79 1013.79 1013.82 1013.83 1013.80 1013.72 1013.60 1013.44 1013.28 1013.14 1013.01 1012.92 1012.84 1012.77 1012.69 1012.58 1012.42 1012.24 1012.02 1011.79 1011.56 1011.35
1011.41 1011.37 1011.31 1011.27 1011.28 1011.40 1011.66 1012.09 1012.65 1013.31 1014.01 1014.67 1015.23 1015.65 1015.91 1015.99 1015.94 1015.81 1015.62 1015.44 1015.29 1015.17 1015.09 1015.02 1014.95 1014.85 1014.70 1014.52 1014.29 1014.04 1013.79 1013.55 1013.34 1013.14 1012.97 1012.80 1012.62 1012.42 1012.20 1011.96 1011.70 1011.45 1011.20 1010.98
1011.73 1011.78 1011.81 1011.82 1011.86 1011.97 1012.18 1012.51 1012.97 1013.53 1014.15 1014.78 1015.37 1015.87 1016.26 1016.54 1016.70 1016.76 1016.77 1016.72 1016.66 1016.57 1016.47 1016.34 1016.18 1015.97 1015.71 1015.41 1015.09 1014.74 1014.40 1014.08 1013.77 1013.48 1013.20 1012.93 1012.65 1012.36 1012.06 1011.75 1011.44 1011.15 1010.89 1010.65
1012.02 1012.18 1012.30 1012.40 1012.49 1012.60 1012.76 1013.02 1013.37 1013.82 1014.34 1014.92 1015.51 1016.07 1016.58 1017.01 1017.35 1017.61 1017.78 1017.87 1017.88 1017.83 1017.71 1017.52 1017.27 1016.97 1016.61 1016.21 1015.80 1015.38 1014.96 1014.56 1014.18 1013.81 1013.44 1013.08 1012.71 1012.33 1011.95 1011.58 1011.23 1010.90 1010.61 1010.36
1012.22 1012.51 1012.75 1012.94 1013.09 1013.22 1013.36 1013.54 1013.80 1014.14 1014.57 1015.07 1015.63 1016.22 1016.81 1017.35 1017.84 1018.24 1018.54 1018.73 1018.81 1018.78 1018.64 1018.39 1018.07 1017.67 1017.23 1016.75 1016.27 1015.79 1015.33 1014.88 1014.45 1014.02 1013.60 1013.17 1012.74 1012.29 1011.85 1011.42 1011.02 1010.66 1010.34 1010.07
1012.36 1012.75 1013.11 1013.39 1013.61 1013.77 1013.90 1014.04 1014.21 1014.45 1014.78 1015.21 1015.73 1016.31 1016.92 1017.54 1018.11 1018.60 1018.99 1019.25 1019.36 1019.33 1019.16 1018.86 1018.46 1018.00 1017.49 1016.96 1016.44 1015.93 1015.45 1014.98 1014.54 1014.09 1013.64 1013.17 1012.69 1012.20 1011.71 1011.24 1010.80 1010.40 1010.05 1009.75
1012.43 1012.91 1013.35 1013.73 1014.01 1014.21 1014.35 1014.45 1014.57 1014.74 1014.98 1015.34 1015.79 1016.34 1016.95 1017.58 1018.19 1018.72 1019.15 1019.43 1019.54 1019.50 1019.29 1018.94 1018.49 1017.97 1017.42 1016.86 1016.32 1015.81 1015.34 1014.89 1014.45 1014.00 1013.55 1013.07 1012.56 1012.04 1011.52 1011.01 1010.53 1010.09 1009.70 1009.36
1012.47 1012.99 1013.49 1013.93 1014.27 1014.51 1014.67 1014.77 1014.86 1014.98 1015.16 1015.45 1015.84 1016.34 1016.92 1017.53 1018.13 1018.66 1019.08 1019.35 1019.45 1019.37 1019.12 1018.73 1018.24 1017.69 1017.12 1016.56 1016.03 1015.54 1015.09 1014.66 1014.25 1013.82 1013.37 1012.88 1012.36 1011.81 1011.25 1010.70 1010.17 1009.67 1009.23 1008.84
1012.50 1013.02 1013.54 1014.01 1014.40 1014.69 1014.88 1015.00 1015.09 1015.19 1015.34 1015.58 1015.93 1016.37 1016.90 1017.47 1018.03 1018.53 1018.91 1019.15 1019.21 1019.10 1018.82 1018.40 1017.89 1017.32 1016.75 1016.20 1015.69 1015.23 1014.81 1014.42 1014.02 1013.61 1013.16 1012.66 1012.11 1011.52 1010.91 1010.30 1009.71 1009.15 1008.64 1008.18
1012.51 1013.01 1013.53 1014.01 1014.44 1014.77 1015.00 1015.16 1015.28 1015.39 1015.54 1015.76 1016.07 1016.48 1016.95 1017.47 1017.97 1018.42 1018.75 1018.94 1018.96 1018.81 1018.50 1018.07 1017.55 1016.99 1016.43 1015.91 1015.42 1014.99 1014.60 1014.22 1013.84 1013.42 1012.95 1012.42 1011.82 1011.18 1010.50 1009.82 1009.15 1008.52 1007.93 1007.40
1012.51 1012.97 1013.46 1013.96 1014.40 1014.78 1015.07 1015.29 1015.46 1015.61 1015.79 1016.02 1016.31 1016.68 1017.11 1017.57 1018.01 1018.39 1018.66 1018.79 1018.77 1018.58 1018.26 1017.82 1017.31 1016.77 1016.23 1015.73 1015.27 1014.86 1014.48 1014.10 1013.70 1013.26 1012.74 1012.16 1011.49 1010.77 1010.01 1009.25 1008.49 1007.78 1007.12 1006.52
1012.50 1012.91 1013.38 1013.87 1014.35 1014.77 1015.13 1015.42 1015.66 1015.88 1016.10 1016.35 1016.65 1016.99 1017.38 1017.77 1018.14 1018.45 1018.65 1018.72 1018.65 1018.44 1018.10 1017.66 1017.16 1016.64 1016.13 1015.65 1015.21 1014.81 1014.42 1014.02 1013.59 1013.09 1012.51 1011.85 1011.10 1010.30 1009.45 1008.59 1007.76 1006.97 1006.25 1005.59
1012.49 1012.85 1013.30 1013.80 1014.30 1014.77 1015.20 1015.57 1015.89 1016.18 1016.46 1016.74 1017.04 1017.37 1017.71 1018.04 1018.34 1018.56 1018.69 1018.69 1018.57 1018.32 1017.96 1017.52 1017.04 1016.54 1016.05 1015.59 1015.16 1014.75 1014.35 1013.91 1013.43 1012.86 1012.21 1011.46 1010.63 1009.73 1008.80 1007.87 1006.98 1006.14 1005.37 1004.69
1012.47 1012.82 1013.26 1013.77 1014.30 1014.82 1015.31 1015.76 1016.15 1016.51 1016.84 1017.15 1017.46 1017.76 1018.05 1018.32 1018.53 1018.67 1018.71 1018.64 1018.46 1018.17 1017.78 1017.34 1016.86 1016.38 1015.90 1015.45 1015.02 1014.60 1014.17 1013.70 1013.15 1012.52 1011.79 1010.96 1010.06 1009.09 1008.10 1007.12 1006.18 1005.32 1004.55 1003.87
1012.48 1012.83 1013.28 1013.80 1014.36 1014.93 1015.47 1015.98 1016.44 1016.85 1017.21 1017.54 1017.84 1018.11 1018.35 1018.53 1018.65 1018.69 1018.64 1018.49 1018.25 1017.91 1017.50 1017.04 1016.56 1016.08 1015.61 1015.17 1014.73 1014.30 1013.83 1013.31 1012.72 1012.03 1011.24 1010.36 1009.39 1008.38 1007.36 1006.36 1005.43 1004.58 1003.83 1003.20
1012.56 1012.92 1013.38 1013.91 1014.49 1015.09 1015.67 1016.22 1016.71 1017.15 1017.54 1017.86 1018.14 1018.36 1018.53 1018.63 1018.66 1018.61 1018.46 1018.23 1017.91 1017.52 1017.08 1016.60 1016.11 1015.63 1015.16 1014.71 1014.27 1013.82 1013.33 1012.78 1012.14 1011.42 1010.59 1009.67 1008.69 1007.67 1006.65 1005.67 1004.76 1003.96 1003.27 1002.70
Thickness
5843 5836 5831 5837 5841 5840 5835 5829 5824 5825 5834 5825 5818 5816 5819 5820 5816 5812 5808 5805 5801 5799 5800 5797 5794 5791 5786 5782 5778 5774 5772 5769 5767 5766 5764 5762 5760 5761 5760 5759 5757 5757 5756 5756
5828 5827 5841 5846 5843 5838 5833 5826 5824 5825 5831 5825 5819 5818 5825 5823 5818 5817 5813 5808 5806 5804 5801 5798 5795 5793 5789 5784 5780 5777 5774 5772 5770 5768 5766 5764 5763 5763 5763 5762 5758 5758 5757 5756
5821 5835 5844 5837 5833 5829 5828 5827 5826 5822 5824 5826 5820 5814 5819 5824 5824 5821 5819 5817 5814 5809 5805 5801 5798 5795 5792 5788 5784 5782 5778 5775 5773 5771 5770 5767 5764 5764 5764 5761 5760 5759 5758 5758
5826 5837 5833 5830 5829 5830 5821 5835 5831 5824 5817 5817 5818 5806 5817 5822 5819 5819 5820 5820 5819 5816 5813 5808 5804 5799 5797 5793 5790 5786 5781 5778 5776 5774 5772 5769 5766 5763 5763 5763 5762 5761 5760 5759
5820 5828 5825 5822 5830 5833 5829 5836 5831 5826 5820 5817 5818 5810 5818 5823 5816 5820 5824 5825 5825 5823 5819 5813 5810 5805 5802 5799 5795 5790 5785 5781 5778 5777 5774 5771 5769 5768 5768 5766 5763 5762 5762 5760
5826 5834 5833 5832 5837 5837 5833 5828 5823 5823 5821 5799 5811 5806 5808 5824 5822 5826 5828 5828 5828 5827 5823 5819 5815 5810 5805 5803 5798 5793 5786 5782 5781 5778 5777 5773 5771 5769 5767 5765 5764 5763 5763 5762
5806 5817 5829 5835 5824 5826 5827 5814 5798 5794 5795 5798 5814 5806 5810 5830 5834 5833 5831 5831 5830 5829 5824 5819 5815 5810 5806 5803 5800 5796 5789 5784 5782 5781 5779 5776 5774 5771 5768 5767 5766 5765 5765 5763
5793 5796 5818 5827 5825 5819 5821 5819 5795 5782 5788 5802 5805 5803 5820 5836 5838 5837 5836 5835 5832 5829 5826 5821 5817 5813 5809 5805 5801 5797 5791 5787 5785 5783 5781 5779 5777 5775 5774 5771 5771 5769 5767 5766
5800 5800 5823 5827 5832 5829 5817 5817 5830 5812 5804 5796 5805 5810 5822 5833 5831 5832 5832 5831 5829 5829 5827 5823 5820 5817 5812 5808 5804 5800 5795 5791 5788 5786 5783 5781 5779 5777 5776 5773 5772 5771 5768 5767
5810 5796 5811 5819 5823 5822 5827 5826 5815 5805 5783 5781 5795 5803 5810 5818 5822 5827 5827 5828 5829 5829 5827 5825 5822 5819 5816 5812 5808 5803 5798 5793 5791 5788 5786 5784 5781 5778 5776 5775 5773 5771 5769 5766
5809 5793 5798 5805 5802 5806 5808 5810 5810 5808 5805 5787 5782 5800 5828 5823 5825 5826 5827 5828 5828 5827 5826 5825 5822 5821 5817 5814 5809 5803 5799 5795 5791 5789 5787 5785 5782 5780 5778 5775 5773 5771 5769 5766
5801 5798 5789 5798 5813 5820 5817 5813 5808 5791 5789 5796 5794 5801 5832 5829 5830 5829 5826 5826 5826 5825 5825 5824 5822 5818 5815 5812 5809 5804 5801 5797 5793 5790 5786 5784 5781 5779 5778 5776 5773 5771 5768 5766
5793 5786 5771 5776 5789 5800 5802 5808 5812 5812 5804 5795 5790 5798 5825 5825 5824 5825 5823 5821 5820 5819 5820 5819 5817 5814 5811 5809 5806 5804 5801 5798 5796 5791 5787 5783 5781 5778 5776 5774 5772 5770 5767 5764
5790 5783 5778 5775 5787 5796 5791 5796 5803 5804 5793 5793 5797 5801 5813 5815 5814 5816 5817 5816 5816 5814 5813 5813 5811 5809 5808 5806 5803 5801 5799 5799 5796 5791 5787 5783 5780 5777 5775 5772 5769 5767 5765 5762
5783 5773 5779 5787 5796 5797 5792 5792 5794 5794 5798 5795 5799 5801 5806 5810 5812 5811 5812 5811 5809 5807 5806 5806 5806 5805 5803 5801 5799 5798 5797 5796 5793 5789 5785 5782 5779 5777 5773 5769 5766 5764 5761 5759
5772 5767 5771 5771 5783 5785 5782 5787 5791 5791 5794 5795 5797 5796 5806 5809 5808 5804 5804 5803 5801 5801 5801 5801 5800 5799 5797 5796 5795 5794 5793 5792 5789 5785 5782 5780 5776 5773 5770 5767 5764 5760 5757 5755
5764 5760 5759 5761 5772 5770 5765 5779 5784 5785 5791 5792 5788 5794 5798 5796 5795 5795 5796 5797 5796 5796 5796 5796 5795 5795 5794 5793 5792 5790 5789 5788 5784 5780 5778 5776 5773 5770 5767 5765 5761 5757 5755 5753
5752 5753 5757 5759 5754 5739 5769 5786 5787 5783 5784 5790 5789 5790 5792 5790 5791 5792 5792 5791 5790 5790 5790 5791 5791 5792 5792 5791 5790 5787 5786 5782 5778 5775 5773 5771 5769 5766 5764 5760 5757 5755 5752 5749
5751 5747 5749 5751 5746 5751 5760 5772 5777 5773 5770 5782 5781 5782 5784 5787 5785 5783 5786 5786 5786 5785 5785 5786 5787 5788 5787 5786 5784 5781 5779 5776 5773 5770 5768 5766 5764 5761 5759 5756 5754 5751 5748 5745
5741 5744 5744 5742 5738 5738 5757 5770 5776 5770 5756 5772 5774 5772 5775 5777 5771 5772 5778 5779 5779 5779 5779 5780 5781 5781 5779 5779 5778 5773 5770 5769 5766 5765 5764 5761 5758 5755 5753 5751 5749 5747 5745 5741
5727 5728 5732 5734 5734 5747 5752 5762 5763 5745 5751 5763 5766 5766 5767 5767 5768 5768 5771 5770 5771 5771 5772 5773 5772 5771 5771 5771 5769 5764 5762 5760 5760 5759 5757 5754 5752 5748 5746 5745 5743 5741 5739 5736
5722 5724 5723 5730 5727 5731 5743 5751 5746 5744 5753 5757 5757 5758 5758 5758 5759 5759 5760 5760 5761 5762 5763 5763 5761 5761 5762 5762 5759 5756 5754 5754 5753 5750 5747 5745 5744 5743 5741 5738 5736 5734 5732 5729
5717 5719 5727 5724 5724 5726 5735 5737 5738 5743 5743 5746 5748 5749 5748 5747 5747 5748 5749 5750 5751 5752 5752 5753 5751 5751 5751 5751 5750 5747 5746 5746 5743 5739 5737 5735 5734 5733 5732 5731 5729 5727 5725 5724
5704 5709 5713 5711 5714 5720 5724 5727 5730 5734 5734 5737 5739 5739 5739 5737 5737 5737 5738 5739 5740 5742 5742 5742 5741 5740 5740 5741 5740 5739 5738 5736 5733 5730 5728 5726 5724 5724 5723 5722 5722 5721 5720 5718
5697 5701 5703 5700 5704 5709 5712 5715 5720 5723 5725 5726 5726 5727 5727 5726 5726 5727 5727 5728 5729 5730 5732 5732 5730 5729 5729 5730 5729 5729 5728 5727 5724 5722 5720 5718 5717 5716 5714 5713 5712 5712 5713 5712
5689 5691 5694 5696 5699 5702 5701 5706 5711 5711 5712 5713 5714 5714 5716 5717 5716 5717 5717 5717 5718 5719 5720 5720 5720 5720 5720 5719 5719 5719 5719 5717 5714 5713 5712 5712 5710 5708 5707 5705 5704 5702 5701 5700